Effective Sunday, March 17, 2024, the National Weather Service National Data Buoy Center will discontinue its Dial-A-Buoy Interactive Voice Response system. For more information, see Service Change Notice 24-06 (PDF).

Station SAUF1 - St. Augustine, FL Image indicating link to RSS feed of recent meteorological observations for station SAUF1


Conditions at SAUF1 as of
(11:00 am EST)
1600 GMT on 02/24/2024:
     

Click on the graph icon in the table below to see a time series plot of the last five days of that observation.

5-day plot - Wind Direction Wind Direction (WDIR): NW ( 320 deg true )
5-day plot - Wind Speed Wind Speed (WSPD): 10 kts
5-day plot - Wind Gust Wind Gust (GST): 13 kts
5-day plot - Atmospheric Pressure Atmospheric Pressure (PRES):29.98 in
5-day plot - Pressure Tendency Pressure Tendency (PTDY):+0.04 in ( Rising )
5-day plot - Air Temperature Air Temperature (ATMP): 63.0 °F
5-day plot - Water Temperature Water Temperature (WTMP): 59.0 °F
5-day plot - Dew Point Dew Point (DEWP): 46.8 °F
5-day plot - Wind Speed at 10 Meters Wind Speed at 10 meters (WSPD10M): 12 kts
5-day plot - Wind Speed at 20 Meters Wind Speed at 20 meters (WSPD20M): 14 kts
5-day plot -  Wind Speed, Wind Gust and Atmospheric Pressure Combined plot of Wind Speed, Gust, and Air Pressure
Continuous Winds
TIME
(EST)
5-day plot - Wind Direction WDIR 5-day plot - Wind Speed WSPD
11:00 amNW ( 321 deg ) 9 kts
10:50 amNW ( 313 deg ) 9 kts
10:40 amWNW ( 301 deg ) 9 kts
10:30 amWNW ( 301 deg ) 8 kts
10:20 amNW ( 312 deg ) 9 kts
10:10 amNW ( 310 deg ) 10 kts
 
Peak gust during the measurement hour
TIME
(EST)
5-day plot - Gust Direction GDR 5-day plot - Gust Speed GST
10:00 amNW ( 310 deg ) 14 kts
Previous observations
TIME
(EST)
5-day plot - Wind Direction
WDIR
 
5-day plot - Wind Speed
WSPD
kts
5-day plot - Wind Gust
GST
kts
5-day plot - Wave Height
WVHT
ft
5-day plot - Dominant Wave Period
DPD
sec
5-day plot - Average Wave Period
APD
sec
5-day plot - Mean Wave Direction
MWD
 
5-day plot - Atmospheric Pressure
PRES
in
5-day plot - Pressure Tendency
PTDY
in
5-day plot - Air Temperature
ATMP
°F
5-day plot - Water Temperature
WTMP
°F
5-day plot - Dew Point
DEWP
°F
5-day plot - Salinity
SAL
psu
5-day plot - Visibility
VIS
nmi
5-day plot - Tide (above MLLW)
TIDE
ft
2024-02-24 10:00 am NW 11 14----29.98+0.07 60.4 58.8 51.1---
2024-02-24 09:00 am NW 10 13----29.96+0.08 58.3 58.8 54.3---
2024-02-24 08:00 amWNW 9 13----29.94+0.09 55.6 58.8 55.6---
2024-02-24 07:00 amWNW 8 10----29.91+0.07 54.1 58.8 54.1---
2024-02-24 06:00 amWNW 7 10----29.88+0.05 55.2 58.8 55.2---
2024-02-24 05:00 amWNW 7 8----29.85+0.03 55.8 58.6 55.8---
2024-02-24 04:00 am W 6 7----29.84+0.02 56.1 58.6 56.1---
2024-02-24 03:00 amWNW 5 8----29.83+0.02 57.9 58.6 57.9---
2024-02-24 02:00 amWNW 6 7----29.82+0.04 60.1 58.8 60.1---
2024-02-24 01:00 am W 5 7----29.81+0.05 60.6 58.8 60.6---
2024-02-24 12:00 am W 6 8----29.80+0.05 62.2 58.8 62.2---
2024-02-23 11:00 pmWSW 6 8----29.78+0.04 63.0 59.0 63.0---
2024-02-23 10:00 pmWSW 7 9----29.76+0.06 63.7 59.0 63.7---
2024-02-23 09:00 pmWSW 7 8----29.75+0.07 64.6 59.0 64.6---
2024-02-23 08:00 pm W 5 10----29.74+0.06 65.8 59.0 65.8---
2024-02-23 07:00 pmWSW 8 10----29.70+0.01 65.8 59.2 65.8---
2024-02-23 06:00 pm SW 11 17----29.68+0.01 65.8 59.2 65.8---
2024-02-23 05:00 pm SW 12 18----29.68+0.00 65.3 59.2 65.3---
2024-02-23 04:00 pm W 11 16----29.70-0.03 65.5 59.7 65.5---
2024-02-23 03:00 pm SW 10 15----29.67-0.10 73.2 59.7 69.3---
2024-02-23 02:00 pm SW 16 21----29.69-0.11 73.0 59.4 70.0---
2024-02-23 01:00 pm SW 21 27----29.72-0.09 71.2 59.0 69.8---
2024-02-23 12:00 pm SW 12 16----29.78-0.05 66.2 58.5 66.2---
2024-02-23 11:00 am SW 9 13----29.80-0.04 66.7 58.3 65.8---